User: anonymous   Login
Location: Unspecified
(0.0000°N, 0.0000°E)
Time: 03:14:17
(UTC+00:00)
Language:

GOES 2 - Orbit

View from above orbital plane
View from above orbital plane
View from above satellite
View from above satellite

Ground track
Ground track

The orbit data is extracted from the following two-line orbital elements,

1 10061U 77048A   18147.09095897 +.00000076 +00000-0 +00000-0 0  9995
2 10061 012.7695 323.6737 0016542 335.4482 028.7850 00.99394921094265
Epoch (UTC): 27 May 2018 02:10:58
Eccentricity: 0.0016542
inclination: 12.7695°
perigee height: 35963 km
apogee height: 36104 km
right ascension of ascending node: 323.6737°
argument of perigee: 335.4482°
revolutions per day: 0.99394921
mean anomaly at epoch: 28.7850°
orbit number at epoch: 9426

The dashed part of the orbit path shows where the satellite is in the earth's shadow,  

DLR